TimeEST,TemperatureF,Dew PointF,Humidity,Sea Level PressureIn,VisibilityMPH,Wind Direction,Wind SpeedMPH,Gust SpeedMPH,PrecipitationIn,Events,Conditions,WindDirDegrees,DateUTC
12:53 AM,3.9,-0.9,80,30.18,10.0,Calm,Calm,-,N/A,,Clear,0,2013-01-24 05:53:00
1:53 AM,3.0,-2.0,80,30.17,10.0,Calm,Calm,-,N/A,,Clear,0,2013-01-24 06:53:00
2:53 AM,3.0,-0.0,87,30.16,10.0,Calm,Calm,-,N/A,,Clear,0,2013-01-24 07:53:00
4:53 AM,1.9,-0.9,88,30.16,10.0,Calm,Calm,-,N/A,,Partly Cloudy,0,2013-01-24 09:53:00
5:53 AM,3.0,-0.9,84,30.17,10.0,Calm,Calm,-,N/A,,Mostly Cloudy,0,2013-01-24 10:53:00
6:53 AM,3.0,-0.9,84,30.19,10.0,WSW,3.5,-,N/A,,Clear,240,2013-01-24 11:53:00
7:53 AM,3.0,-2.0,80,30.20,10.0,WSW,3.5,-,N/A,,Clear,240,2013-01-24 12:53:00
8:53 AM,9.0,-2.9,59,30.21,10.0,WNW,5.8,-,N/A,,Clear,300,2013-01-24 13:53:00
9:53 AM,10.9,-0.9,59,30.23,10.0,WNW,9.2,-,N/A,,Clear,300,2013-01-24 14:53:00
10:53 AM,14.0,-0.9,52,30.23,10.0,WNW,12.7,18.4,N/A,,Clear,290,2013-01-24 15:53:00
11:53 AM,16.0,-2.9,43,30.22,10.0,WNW,12.7,19.6,N/A,,Clear,300,2013-01-24 16:53:00
12:53 PM,18.0,-2.9,40,30.21,10.0,NW,15.0,26.5,N/A,,Clear,310,2013-01-24 17:53:00
1:53 PM,19.9,-2.9,37,30.22,10.0,WNW,15.0,25.3,N/A,,Partly Cloudy,300,2013-01-24 18:53:00
2:53 PM,21.0,-5.1,32,30.23,10.0,NNW,16.1,23.0,N/A,,Clear,330,2013-01-24 19:53:00
3:53 PM,19.9,-6.0,32,30.25,10.0,NW,15.0,27.6,N/A,,Clear,310,2013-01-24 20:53:00
4:53 PM,18.0,-6.0,35,30.27,10.0,WNW,16.1,27.6,N/A,,Clear,290,2013-01-24 21:53:00
5:53 PM,17.1,-6.0,36,30.30,10.0,WNW,15.0,23.0,N/A,,Clear,300,2013-01-24 22:53:00
6:53 PM,16.0,-6.0,38,30.32,10.0,West,15.0,19.6,N/A,,Clear,280,2013-01-24 23:53:00
7:53 PM,15.1,-5.1,41,30.33,10.0,WNW,11.5,-,N/A,,Clear,290,2013-01-25 00:53:00
8:53 PM,14.0,-4.0,45,30.32,10.0,WNW,8.1,-,N/A,,Clear,290,2013-01-25 01:53:00
9:53 PM,14.0,-2.9,47,30.33,10.0,WNW,9.2,21.9,N/A,,Clear,300,2013-01-25 02:53:00
10:53 PM,12.9,-2.0,51,30.34,10.0,WNW,6.9,-,N/A,,Clear,300,2013-01-25 03:53:00
11:53 PM,12.9,-2.0,51,30.35,10.0,West,3.5,-,N/A,,Clear,260,2013-01-25 04:53:00